Ludington, MI

10:39 PM EST on November 11, 2019 (GMT -0500)
Mason County

Weather History for KLDM - September, 2019

Change the Weather History Date:

Wednesday, September 11, 2019

  Actual Average Record
Temperature  
Mean Temperature 66 °F -  
Max Temperature 73 °F 72 °F 86 °F (1952)
Min Temperature 60 °F 52 °F 34 °F (1958)
Cooling Degree Days 2    
Growing Degree Days 16 (Base 50)    
Moisture  
Dew Point 66 °F    
Average Humidity 95    
Maximum Humidity 96    
Minimum Humidity 87    
Precipitation  
Precipitation 0.58 in - - ()
Sea Level Pressure  
Sea Level Pressure 30.07 in    
Wind  
Wind Speed 2 mph (North)    
Max Wind Speed 9 mph    
Max Gust Speed -    
Visibility 7 miles    
Events Fog , Rain    
Averages and records for this station are not official NWS values.
T = Trace of Precipitation, MM = Missing Value Source: NWS Daily Summary

Daily Weather History Graph

Daily Weather History Graph

Search for Another Location

Airport or City:

Astronomy

Sep. 11, 2019 Rise Set
Actual Time 7:20 AM EDT 8:03 PM EDT
Civil Twilight 6:50 AM EDT 8:32 PM EDT
Nautical Twilight 6:16 AM EDT 9:07 PM EDT
Astronomical Twilight 5:40 AM EDT 9:43 PM EDT
Moon 7:22 PM EDT (9/11) 4:34 AM EDT (9/11)
Length of Visible Light 13h 41m
Length of Day
12h 43m
Waxing Gibbous, 94% of the Moon is Illuminated
Sep 11
Waxing Gibbous
Sep 14
Full
Sep 21
Last Quarter
Sep 28
New
Oct 5
First Quarter

Hourly Weather History & Observations

Time (EDT) Temp. Dew Point Humidity Pressure Visibility Wind Dir Wind Speed Gust Speed Precip Events Conditions
12:15 AM 67.1 °F 65.8 °F 96% 30.05 in 7.0 mi Calm Calm - N/A   Clear
12:35 AM 65.7 °F 64.4 °F 96% 30.06 in 7.0 mi SW 3.5 mph - N/A   Clear
12:55 AM 67.3 °F 66.2 °F 96% 30.06 in 10.0 mi Calm Calm - N/A   Clear
12:59 AM 67.3 °F 66.2 °F 96% 30.07 in 10.0 mi Calm Calm - N/A   Clear
1:17 AM 64.9 °F 63.7 °F 96% 30.07 in 4.0 mi Calm Calm - N/A   Clear
1:35 AM 63.7 °F 62.4 °F 96% 30.07 in 0.5 mi Calm Calm - N/A Fog Fog
1:55 AM 64.6 °F 63.3 °F 96% 30.08 in 0.8 mi Calm Calm - N/A   Mist
1:56 AM 64.6 °F 63.3 °F 96% 30.08 in 0.8 mi Calm Calm - N/A   Mist
2:15 AM 64.9 °F 63.7 °F 96% 30.09 in 3.0 mi WSW 3.5 mph - N/A   Mostly Cloudy
2:20 AM 65.3 °F 64.0 °F 96% 30.09 in 7.0 mi WSW 3.5 mph - N/A   Mostly Cloudy
2:38 AM 67.3 °F 66.2 °F 96% 30.09 in 10.0 mi WSW 4.6 mph - N/A   Scattered Clouds
2:56 AM 67.6 °F 65.8 °F 94% 30.09 in 10.0 mi WSW 3.5 mph - N/A   Scattered Clouds
3:15 AM 67.6 °F 65.3 °F 92% 30.09 in 10.0 mi WSW 3.5 mph - N/A   Mostly Cloudy
3:35 AM 68.7 °F 65.8 °F 90% 30.08 in 10.0 mi WSW 3.5 mph - N/A   Mostly Cloudy
3:36 AM 68.7 °F 65.8 °F 90% 30.08 in 10.0 mi WSW 3.5 mph - N/A   Mostly Cloudy
3:58 AM 67.8 °F 65.3 °F 92% 30.07 in 10.0 mi WSW 4.6 mph - N/A   Scattered Clouds
4:17 AM 68.0 °F 65.5 °F 92% 30.08 in 10.0 mi Calm Calm - N/A   Scattered Clouds
4:35 AM 68.2 °F 65.5 °F 91% 30.09 in 10.0 mi Calm Calm - N/A   Scattered Clouds
4:55 AM 64.0 °F 62.6 °F 95% 30.09 in 10.0 mi Calm Calm - N/A   Mostly Cloudy
5:15 AM 62.8 °F 61.3 °F 95% 30.09 in 0.8 mi Calm Calm - N/A   Mostly Cloudy
5:38 AM 63.1 °F 61.9 °F 96% 30.09 in 7.0 mi Calm Calm - N/A   Clear
5:55 AM 62.6 °F 61.3 °F 96% 30.09 in 1.5 mi Calm Calm - N/A   Scattered Clouds
6:15 AM 61.2 °F 59.9 °F 96% 30.09 in 1.2 mi Calm Calm - N/A   Scattered Clouds
6:16 AM 61.3 °F 60.1 °F 96% 30.09 in 1.2 mi Calm Calm - N/A   Mostly Cloudy
6:35 AM 60.4 °F 59.2 °F 96% 30.09 in 0.5 mi Calm Calm - N/A Fog Fog
6:59 AM 60.8 °F 59.5 °F 96% 30.09 in 0.2 mi Calm Calm - N/A Fog Fog
7:17 AM 60.4 °F 59.2 °F 96% 30.09 in 0.2 mi Calm Calm - N/A Fog Fog
7:35 AM 60.1 °F 58.8 °F 96% 30.10 in 0.2 mi Calm Calm - N/A Fog Fog
7:36 AM 60.4 °F 59.2 °F 96% 30.10 in 0.2 mi Calm Calm - N/A Fog Fog
7:55 AM 60.6 °F 59.4 °F 96% 30.11 in 0.2 mi Calm Calm - N/A Fog Fog
7:56 AM 60.8 °F 59.5 °F 96% 30.11 in 0.2 mi Calm Calm - N/A Fog Fog
8:15 AM 63.5 °F 62.2 °F 96% 30.11 in 5.0 mi Calm Calm - N/A   Scattered Clouds
8:38 AM 65.1 °F 63.7 °F 95% 30.10 in 5.0 mi Calm Calm - N/A   Clear
8:56 AM 66.0 °F 64.8 °F 96% 30.10 in 7.0 mi Calm Calm - N/A   Clear
9:15 AM 67.1 °F 65.8 °F 96% 30.10 in 10.0 mi Calm Calm - N/A   Scattered Clouds
9:16 AM 67.1 °F 65.8 °F 96% 30.10 in 10.0 mi Calm Calm - N/A   Scattered Clouds
9:35 AM 69.1 °F 67.5 °F 95% 30.09 in 10.0 mi SE 3.5 mph - N/A   Mostly Cloudy
9:36 AM 69.1 °F 67.3 °F 94% 30.09 in 10.0 mi Calm Calm - N/A   Mostly Cloudy
9:59 AM 70.2 °F 67.1 °F 90% 30.10 in 10.0 mi SE 4.6 mph - N/A   Overcast
10:17 AM 71.8 °F 68.2 °F 88% 30.10 in 10.0 mi SE 3.5 mph - N/A   Overcast
10:35 AM 71.2 °F 67.6 °F 88% 30.10 in 10.0 mi Calm Calm - N/A   Overcast
10:55 AM 71.8 °F 68.2 °F 88% 30.10 in 10.0 mi Calm Calm - N/A   Overcast
10:56 AM 71.8 °F 68.2 °F 88% 30.10 in 10.0 mi Calm Calm - N/A   Overcast
11:15 AM 73.2 °F 69.3 °F 87% 30.09 in 10.0 mi Calm Calm - N/A   Mostly Cloudy
11:20 AM 73.4 °F 69.3 °F 87% 30.09 in 10.0 mi Calm Calm - N/A Rain Light Rain
11:38 AM 72.9 °F 70.0 °F 91% 30.08 in 10.0 mi Calm Calm - N/A Rain Light Rain
11:56 AM 73.4 °F 70.0 °F 89% 30.10 in 10.0 mi Calm Calm - 0.01 in Rain Light Rain
12:15 PM 71.2 °F 69.1 °F 93% 30.11 in 7.0 mi West 6.9 mph - N/A Rain Light Rain
12:35 PM 68.4 °F 67.1 °F 96% 30.10 in 2.5 mi Calm Calm - 0.19 in Rain Heavy Rain
12:36 PM 68.2 °F 67.1 °F 96% 30.10 in 2.5 mi Calm Calm - 0.19 in Rain Heavy Rain
12:59 PM 68.5 °F 67.3 °F 96% 30.08 in 3.0 mi Calm Calm - 0.24 in Rain Light Rain
1:17 PM 69.4 °F 68.2 °F 96% 30.07 in 3.0 mi Calm Calm - 0.01 in   Overcast
1:35 PM 69.8 °F 68.4 °F 95% 30.07 in 3.0 mi Calm Calm - 0.01 in   Overcast
1:55 PM 70.7 °F 69.4 °F 96% 30.07 in 4.0 mi NNW 6.9 mph - 0.01 in   Overcast
1:56 PM 70.7 °F 69.4 °F 96% 30.07 in 4.0 mi NW 9.2 mph - 0.01 in   Overcast
2:15 PM 69.6 °F 67.3 °F 92% 30.07 in 2.5 mi North 5.8 mph - 0.06 in Rain Heavy Rain
2:20 PM 70.0 °F 68.0 °F 93% 30.07 in 2.5 mi North 3.5 mph - 0.06 in Rain Light Rain
2:38 PM 70.0 °F 68.5 °F 95% 30.06 in 10.0 mi North 9.2 mph - 0.06 in   Overcast
2:56 PM 69.1 °F 67.8 °F 96% 30.05 in 10.0 mi NNE 4.6 mph - 0.06 in   Overcast
3:15 PM 70.7 °F 69.3 °F 95% 30.04 in 10.0 mi NE 5.8 mph - N/A   Overcast
3:35 PM 70.9 °F 69.8 °F 96% 30.04 in 10.0 mi ENE 3.5 mph - N/A   Overcast
3:36 PM 70.9 °F 69.8 °F 96% 30.04 in 10.0 mi ENE 3.5 mph - N/A   Overcast
3:59 PM 71.1 °F 69.8 °F 96% 30.04 in 10.0 mi East 4.6 mph - N/A   Overcast
4:17 PM 70.9 °F 69.8 °F 96% 30.03 in 7.0 mi Calm Calm - N/A Rain Rain
4:35 PM 71.2 °F 70.0 °F 96% 30.03 in 2.0 mi Calm Calm - 0.04 in Rain Heavy Rain
4:55 PM 71.6 °F 70.2 °F 95% 30.01 in 5.0 mi Calm Calm - 0.05 in Rain Light Rain
5:15 PM 71.6 °F 70.3 °F 96% 30.01 in 5.0 mi Calm Calm - N/A Rain Light Rain
5:20 PM 71.6 °F 70.3 °F 96% 30.02 in 5.0 mi Calm Calm - N/A Rain Rain
5:38 PM 71.6 °F 70.2 °F 95% 30.00 in 4.0 mi ENE 3.5 mph - 0.02 in Rain Rain
5:56 PM 69.4 °F 68.2 °F 96% 30.03 in 3.0 mi NNW 6.9 mph - 0.15 in Rain Heavy Rain
6:15 PM 68.0 °F 66.7 °F 96% 30.03 in 4.0 mi NNE 3.5 mph - 0.04 in Rain Rain
6:16 PM 68.0 °F 66.7 °F 96% 30.02 in 5.0 mi NNE 3.5 mph - 0.05 in Rain Rain
6:35 PM 67.5 °F 66.2 °F 96% 30.03 in 10.0 mi Calm Calm - 0.06 in Rain Light Rain
6:59 PM 67.1 °F 65.8 °F 96% 30.03 in 10.0 mi NE 4.6 mph - 0.06 in   Overcast
7:17 PM 67.1 °F 65.7 °F 95% 30.03 in 10.0 mi NNE 3.5 mph - N/A   Overcast
7:55 PM 67.5 °F 66.2 °F 96% 30.02 in 10.0 mi Calm Calm - N/A   Overcast
8:15 PM 67.5 °F 66.2 °F 96% 30.02 in 10.0 mi ENE 3.5 mph - N/A   Overcast
8:38 PM 67.1 °F 65.7 °F 95% 30.03 in 10.0 mi Calm Calm - N/A   Overcast
8:55 PM 66.6 °F 65.3 °F 96% 30.03 in 10.0 mi Calm Calm - N/A   Overcast
9:15 PM 66.2 °F 64.9 °F 96% 30.04 in 10.0 mi Calm Calm - N/A   Overcast
9:16 PM 66.2 °F 64.9 °F 96% 30.04 in 10.0 mi NNE 3.5 mph - N/A   Overcast
9:35 PM 65.8 °F 64.6 °F 96% 30.05 in 10.0 mi North 3.5 mph - N/A   Overcast
9:59 PM 65.8 °F 64.6 °F 96% 30.05 in 10.0 mi NNE 3.5 mph - N/A   Overcast
10:17 PM 65.7 °F 64.4 °F 96% 30.05 in 10.0 mi NNE 4.6 mph - N/A   Overcast
10:35 PM 65.5 °F 64.4 °F 96% 30.05 in 10.0 mi NNE 4.6 mph - N/A   Overcast
10:36 PM 65.5 °F 64.4 °F 96% 30.05 in 10.0 mi NNE 5.8 mph - N/A   Overcast
10:55 PM 65.5 °F 64.4 °F 96% 30.05 in 10.0 mi NNE 4.6 mph - N/A   Overcast
11:15 PM 65.3 °F 64.0 °F 96% 30.05 in 10.0 mi North 6.9 mph - N/A   Overcast
11:37 PM 65.3 °F 64.0 °F 96% 30.05 in 10.0 mi NNE 4.6 mph - N/A   Overcast
11:56 PM 65.5 °F 64.4 °F 96% 30.07 in 10.0 mi NNE 4.6 mph - N/A   Overcast